Weather in Ichalki

Russia / Republic of Mordovia     54°41′11″N   45°16′14″E
temp.,
°C
wind,
m/s
gust,
m/s
humid.,
%
clouds,
%
prec.,
mm/h
press.,
hPa
HPBL,
m
19 january, tue
tue1900:00−20ene1295100 0.0 1019134
03:00−20ne1196100 0.0 101936
06:00−20ne1296100 0.0 101859
09:00−20n0198100 0.2 101885
12:00−18nw1292100 0.4 1017288
15:00−17nnw2395100 0.7 1016292
18:00−19nw1298100 0.4 101625
21:00−18wnw1298100 0.8 101697
20 january, wed
wed2000:00−18w2298100 0.3 101681
03:00−17w2497100 0.7 1016185
06:00−17w2497100 0.4 1016144
09:00−17w3697100 0.7 1017206
12:00−14w3593100 0.1 1017330
15:00−14wsw3694100 0.2 1017353
18:00−16wsw359796 0.1 1019113
21:00−16wsw359795 0.1 1020134
21 january, thu
thu2100:00−15wsw379689 0.1 1020161
03:00−16wsw389792 0.1 1021203
06:00−17wsw4997100 0.1 1021201
09:00−18wsw4997100 0.1 1022229
12:00−15sw4893100 0.0 1021272
15:00−14sw4991100 0.0 1019309
18:00−13ssw51189100 0.0 1017371
21:00−12sw61394100 1.0 1014697
22 january, fri
fri2200:00−11wsw41094100 1.2 1013597
03:00−10wsw3995100 1.4 1013358
06:00−10wsw2296100 0.3 101331
09:00−9ssw1196100 0.5 101425
12:00−6sse2395100 0.3 1014172
15:00−4sse249799 0.6 1013183
18:00−3e2298100 0.6 101360
21:00−1se0198100 0.8 101433
23 january, sat
sat2300:000sw2599100 0.1 1015192
03:00+1wsw4999100 0.2 1015336
06:00+1ssw41094100 0.0 1014463
09:000ssw51196100 0.0 1014468
12:00+1sw51197100 0.0 1014578
15:00+1sw61195100 0.0 1014637
18:00+1sw51095100 0.0 1015610
21:00+1sw41097100 0.0 1015398